Time,TemperatureF,DewpointF,PressureIn,WindDirection,WindDirectionDegrees,WindSpeedMPH,WindSpeedGustMPH,Humidity,HourlyPrecipIn,Conditions,Clouds,dailyrainin,SoftwareType,DateUTC
2013-01-24 00:02:00,44.0,35.0,30.15,NE,51,5.0,-999.0,70,-99.99,,,-99.99,,2013-01-24 06:02:00,
2013-01-24 00:12:00,44.0,35.0,30.15,NE,51,5.0,-999.0,70,-99.99,,,-99.99,,2013-01-24 06:12:00,
2013-01-24 00:22:00,43.0,33.0,30.15,NE,51,6.0,-999.0,68,-99.99,,,-99.99,,2013-01-24 06:22:00,
2013-01-24 00:32:00,43.0,32.0,30.17,NE,44,6.0,-999.0,66,-99.99,,,-99.99,,2013-01-24 06:32:00,
2013-01-24 00:42:00,43.0,32.0,30.17,NE,44,6.0,-999.0,66,-99.99,,,-99.99,,2013-01-24 06:42:00,
2013-01-24 00:52:00,43.0,32.0,30.15,ENE,71,4.0,-999.0,65,-99.99,,,-99.99,,2013-01-24 06:52:00,
2013-01-24 01:02:00,42.0,31.0,30.15,NE,42,4.0,-999.0,64,-99.99,,,-99.99,,2013-01-24 07:02:00,
2013-01-24 01:12:00,42.0,31.0,30.15,NE,42,4.0,-999.0,64,-99.99,,,-99.99,,2013-01-24 07:12:00,
2013-01-24 01:22:00,42.0,30.0,30.15,ENE,74,4.0,-999.0,63,-99.99,,,-99.99,,2013-01-24 07:22:00,
2013-01-24 01:33:00,42.0,30.0,30.16,ENE,71,4.0,-999.0,63,-99.99,,,-99.99,,2013-01-24 07:33:00,
2013-01-24 01:42:00,42.0,30.0,30.16,ENE,71,4.0,-999.0,63,-99.99,,,-99.99,,2013-01-24 07:42:00,
2013-01-24 01:52:00,42.0,30.0,30.16,ENE,59,5.0,-999.0,61,-99.99,,,-99.99,,2013-01-24 07:52:00,
2013-01-24 02:02:00,42.0,30.0,30.16,NE,41,5.0,-999.0,61,-99.99,,,-99.99,,2013-01-24 08:02:00,
2013-01-24 02:12:00,42.0,30.0,30.16,NE,41,5.0,-999.0,61,-99.99,,,-99.99,,2013-01-24 08:12:00,
2013-01-24 02:22:00,41.0,29.0,30.17,ENE,59,6.0,-999.0,61,-99.99,,,-99.99,,2013-01-24 08:22:00,
2013-01-24 02:33:00,41.0,28.0,30.18,ENE,63,5.0,-999.0,60,-99.99,,,-99.99,,2013-01-24 08:33:00,
2013-01-24 02:43:00,41.0,28.0,30.18,ENE,63,5.0,-999.0,60,-99.99,,,-99.99,,2013-01-24 08:43:00,
2013-01-24 02:52:00,41.0,27.0,30.17,East,90,5.0,-999.0,58,-99.99,,,-99.99,,2013-01-24 08:52:00,
2013-01-24 03:03:00,41.0,27.0,30.17,East,82,4.0,-999.0,58,-99.99,,,-99.99,,2013-01-24 09:03:00,
2013-01-24 03:13:00,41.0,27.0,30.17,East,82,4.0,-999.0,58,-99.99,,,-99.99,,2013-01-24 09:13:00,
2013-01-24 03:23:00,41.0,28.0,30.18,East,82,4.0,-999.0,59,-99.99,,,-99.99,,2013-01-24 09:23:00,
2013-01-24 03:33:00,40.0,27.0,30.18,ENE,66,5.0,-999.0,59,-99.99,,,-99.99,,2013-01-24 09:33:00,
2013-01-24 03:43:00,40.0,27.0,30.18,ENE,66,5.0,-999.0,59,-99.99,,,-99.99,,2013-01-24 09:43:00,
2013-01-24 03:52:00,40.0,27.0,30.18,NE,55,5.0,-999.0,59,-99.99,,,-99.99,,2013-01-24 09:52:00,
2013-01-24 04:03:00,39.0,26.0,30.18,NNE,24,5.0,-999.0,59,-99.99,,,-99.99,,2013-01-24 10:03:00,
2013-01-24 04:12:00,39.0,26.0,30.18,NNE,24,5.0,-999.0,59,-99.99,,,-99.99,,2013-01-24 10:12:00,
2013-01-24 04:22:00,39.0,26.0,30.18,NE,47,6.0,-999.0,60,-99.99,,,-99.99,,2013-01-24 10:22:00,
2013-01-24 04:33:00,39.0,26.0,30.18,ENE,57,6.0,-999.0,60,-99.99,,,-99.99,,2013-01-24 10:33:00,
2013-01-24 04:43:00,39.0,26.0,30.18,ENE,57,6.0,-999.0,60,-99.99,,,-99.99,,2013-01-24 10:43:00,
2013-01-24 04:52:00,38.0,26.0,30.17,ENE,69,4.0,-999.0,61,-99.99,,,-99.99,,2013-01-24 10:52:00,
2013-01-24 05:02:00,38.0,26.0,30.17,ENE,57,5.0,-999.0,61,-99.99,,,-99.99,,2013-01-24 11:02:00,
2013-01-24 05:12:00,38.0,26.0,30.17,ENE,57,5.0,-999.0,61,-99.99,,,-99.99,,2013-01-24 11:12:00,
2013-01-24 05:23:00,38.0,26.0,30.16,NE,42,5.0,-999.0,62,-99.99,,,-99.99,,2013-01-24 11:23:00,
2013-01-24 05:33:00,38.0,26.0,30.18,NE,43,5.0,-999.0,62,-99.99,,,-99.99,,2013-01-24 11:33:00,
2013-01-24 05:43:00,38.0,26.0,30.18,NE,43,5.0,-999.0,62,-99.99,,,-99.99,,2013-01-24 11:43:00,
2013-01-24 05:52:00,38.0,26.0,30.18,ENE,76,4.0,-999.0,62,-99.99,,,-99.99,,2013-01-24 11:52:00,
2013-01-24 06:03:00,38.0,25.0,30.18,ENE,71,4.0,-999.0,60,-99.99,,,-99.99,,2013-01-24 12:03:00,
2013-01-24 06:12:00,38.0,25.0,30.18,ENE,71,4.0,-999.0,60,-99.99,,,-99.99,,2013-01-24 12:12:00,
2013-01-24 06:22:00,38.0,25.0,30.18,East,86,6.0,-999.0,58,-99.99,,,-99.99,,2013-01-24 12:22:00,
2013-01-24 06:33:00,38.0,25.0,30.17,East,88,5.0,-999.0,58,-99.99,,,-99.99,,2013-01-24 12:33:00,
2013-01-24 06:43:00,38.0,25.0,30.17,East,88,5.0,-999.0,58,-99.99,,,-99.99,,2013-01-24 12:43:00,
2013-01-24 06:53:00,37.0,23.0,30.18,ENE,71,6.0,-999.0,57,-99.99,,,-99.99,,2013-01-24 12:53:00,
2013-01-24 07:03:00,37.0,23.0,30.18,ENE,61,7.0,-999.0,57,-99.99,,,-99.99,,2013-01-24 13:03:00,
2013-01-24 07:13:00,37.0,23.0,30.18,ENE,61,7.0,-999.0,57,-99.99,,,-99.99,,2013-01-24 13:13:00,
2013-01-24 07:23:00,37.0,23.0,30.18,East,84,7.0,-999.0,56,-99.99,,,-99.99,,2013-01-24 13:23:00,
2013-01-24 07:33:00,37.0,23.0,30.18,East,84,7.0,-999.0,56,-99.99,,,-99.99,,2013-01-24 13:33:00,
2013-01-24 07:43:00,37.0,23.0,30.18,East,84,7.0,-999.0,56,-99.99,,,-99.99,,2013-01-24 13:43:00,
2013-01-24 07:52:00,36.0,22.0,30.19,ENE,62,5.0,-999.0,57,-99.99,,,-99.99,,2013-01-24 13:52:00,
2013-01-24 08:03:00,36.0,22.0,30.20,NE,53,5.0,-999.0,57,-99.99,,,-99.99,,2013-01-24 14:03:00,
2013-01-24 08:12:00,36.0,22.0,30.20,NE,53,5.0,-999.0,57,-99.99,,,-99.99,,2013-01-24 14:12:00,
2013-01-24 08:23:00,36.0,22.0,30.19,ENE,69,5.0,-999.0,56,-99.99,,,-99.99,,2013-01-24 14:23:00,
2013-01-24 08:33:00,36.0,22.0,30.18,East,83,5.0,-999.0,56,-99.99,,,-99.99,,2013-01-24 14:33:00,
2013-01-24 08:43:00,36.0,22.0,30.18,East,83,5.0,-999.0,56,-99.99,,,-99.99,,2013-01-24 14:43:00,
2013-01-24 08:53:00,36.0,22.0,30.18,East,83,5.0,-999.0,56,-99.99,,,-99.99,,2013-01-24 14:53:00,
2013-01-24 09:03:00,37.0,20.0,30.18,ENE,65,7.0,-999.0,50,-99.99,,,-99.99,,2013-01-24 15:03:00,
2013-01-24 09:12:00,37.0,20.0,30.18,ENE,65,7.0,-999.0,50,-99.99,,,-99.99,,2013-01-24 15:12:00,
2013-01-24 09:23:00,36.0,19.0,30.18,East,90,7.0,-999.0,50,-99.99,,,-99.99,,2013-01-24 15:23:00,
2013-01-24 09:33:00,36.0,19.0,30.18,East,90,7.0,-999.0,50,-99.99,,,-99.99,,2013-01-24 15:33:00,
2013-01-24 09:43:00,36.0,20.0,30.19,ENE,63,6.0,-999.0,51,-99.99,,,-99.99,,2013-01-24 15:43:00,
2013-01-24 09:53:00,37.0,21.0,30.19,ESE,123,6.0,-999.0,51,-99.99,,,-99.99,,2013-01-24 15:53:00,
2013-01-24 10:03:00,37.0,21.0,30.20,East,93,6.0,-999.0,52,-99.99,,,-99.99,,2013-01-24 16:03:00,
2013-01-24 10:12:00,37.0,21.0,30.20,East,93,6.0,-999.0,52,-99.99,,,-99.99,,2013-01-24 16:12:00,
2013-01-24 10:23:00,36.0,20.0,30.21,ESE,121,7.0,-999.0,52,-99.99,,,-99.99,,2013-01-24 16:23:00,
2013-01-24 10:33:00,36.0,20.0,30.20,East,85,6.0,-999.0,51,-99.99,,,-99.99,,2013-01-24 16:33:00,
2013-01-24 10:42:00,36.0,20.0,30.20,East,85,6.0,-999.0,51,-99.99,,,-99.99,,2013-01-24 16:42:00,
2013-01-24 11:02:00,37.0,21.0,30.19,ENE,66,6.0,-999.0,51,-99.99,,,-99.99,,2013-01-24 17:02:00,
2013-01-24 11:12:00,37.0,21.0,30.19,ENE,66,6.0,-999.0,51,-99.99,,,-99.99,,2013-01-24 17:12:00,
2013-01-24 11:22:00,37.0,21.0,30.19,ENE,66,6.0,-999.0,51,-99.99,,,-99.99,,2013-01-24 17:22:00,
2013-01-24 11:32:00,37.0,21.0,30.19,SE,125,6.0,-999.0,52,-99.99,,,-99.99,,2013-01-24 17:32:00,
2013-01-24 11:42:00,37.0,21.0,30.19,SE,125,6.0,-999.0,52,-99.99,,,-99.99,,2013-01-24 17:42:00,
2013-01-24 11:52:00,38.0,22.0,30.18,East,99,6.0,-999.0,52,-99.99,,,-99.99,,2013-01-24 17:52:00,
2013-01-24 12:02:00,37.0,21.0,30.18,East,83,7.0,-999.0,52,-99.99,,,-99.99,,2013-01-24 18:02:00,
2013-01-24 12:12:00,38.0,22.0,30.18,ESE,112,5.0,-999.0,51,-99.99,,,-99.99,,2013-01-24 18:12:00,
2013-01-24 12:22:00,38.0,22.0,30.18,ESE,112,5.0,-999.0,51,-99.99,,,-99.99,,2013-01-24 18:22:00,
2013-01-24 12:33:00,37.0,21.0,30.17,East,81,7.0,-999.0,51,-99.99,,,-99.99,,2013-01-24 18:33:00,
2013-01-24 12:42:00,37.0,21.0,30.17,East,81,7.0,-999.0,51,-99.99,,,-99.99,,2013-01-24 18:42:00,
2013-01-24 12:52:00,37.0,21.0,30.17,East,81,7.0,-999.0,51,-99.99,,,-99.99,,2013-01-24 18:52:00,
2013-01-24 13:02:00,38.0,21.0,30.16,ENE,76,6.0,-999.0,49,-99.99,,,-99.99,,2013-01-24 19:02:00,
2013-01-24 13:12:00,38.0,21.0,30.16,ENE,76,6.0,-999.0,49,-99.99,,,-99.99,,2013-01-24 19:12:00,
2013-01-24 13:22:00,38.0,21.0,30.16,ENE,76,6.0,-999.0,49,-99.99,,,-99.99,,2013-01-24 19:22:00,
2013-01-24 13:33:00,38.0,19.0,30.14,ENE,61,6.0,-999.0,46,-99.99,,,-99.99,,2013-01-24 19:33:00,
2013-01-24 13:42:00,38.0,18.0,30.14,ENE,59,6.0,-999.0,44,-99.99,,,-99.99,,2013-01-24 19:42:00,
2013-01-24 13:53:00,38.0,18.0,30.14,ENE,59,6.0,-999.0,44,-99.99,,,-99.99,,2013-01-24 19:53:00,
2013-01-24 14:02:00,38.0,18.0,30.14,ENE,59,6.0,-999.0,44,-99.99,,,-99.99,,2013-01-24 20:02:00,
2013-01-24 14:11:00,38.0,18.0,30.14,ENE,59,6.0,-999.0,44,-99.99,,,-99.99,,2013-01-24 20:11:00,
2013-01-24 14:22:00,38.0,18.0,30.11,East,83,6.0,-999.0,44,-99.99,,,-99.99,,2013-01-24 20:22:00,
2013-01-24 14:32:00,38.0,18.0,30.11,ENE,78,5.0,-999.0,44,-99.99,,,-99.99,,2013-01-24 20:32:00,
2013-01-24 14:42:00,38.0,18.0,30.11,ENE,78,5.0,-999.0,44,-99.99,,,-99.99,,2013-01-24 20:42:00,
2013-01-24 14:52:00,38.0,19.0,30.10,East,93,4.0,-999.0,45,-99.99,,,-99.99,,2013-01-24 20:52:00,
2013-01-24 15:02:00,38.0,19.0,30.10,East,88,5.0,-999.0,46,-99.99,,,-99.99,,2013-01-24 21:02:00,
2013-01-24 15:12:00,38.0,19.0,30.10,East,88,5.0,-999.0,46,-99.99,,,-99.99,,2013-01-24 21:12:00,
2013-01-24 15:22:00,38.0,19.0,30.09,East,87,6.0,-999.0,46,-99.99,,,-99.99,,2013-01-24 21:22:00,
2013-01-24 15:33:00,38.0,20.0,30.09,East,95,6.0,-999.0,48,-99.99,,,-99.99,,2013-01-24 21:33:00,
2013-01-24 15:43:00,38.0,20.0,30.09,East,95,6.0,-999.0,48,-99.99,,,-99.99,,2013-01-24 21:43:00,
2013-01-24 15:52:00,38.0,21.0,30.09,ENE,75,6.0,-999.0,49,-99.99,,,-99.99,,2013-01-24 21:52:00,
2013-01-24 16:03:00,38.0,21.0,30.09,East,92,5.0,-999.0,49,-99.99,,,-99.99,,2013-01-24 22:03:00,
2013-01-24 16:12:00,38.0,21.0,30.09,East,92,5.0,-999.0,49,-99.99,,,-99.99,,2013-01-24 22:12:00,
2013-01-24 16:22:00,38.0,21.0,30.09,ESE,106,5.0,-999.0,50,-99.99,,,-99.99,,2013-01-24 22:22:00,
2013-01-24 16:32:00,38.0,21.0,30.07,East,97,5.0,-999.0,50,-99.99,,,-99.99,,2013-01-24 22:32:00,
2013-01-24 16:42:00,38.0,21.0,30.07,East,97,5.0,-999.0,50,-99.99,,,-99.99,,2013-01-24 22:42:00,
2013-01-24 16:52:00,38.0,21.0,30.07,ESE,105,4.0,-999.0,50,-99.99,,,-99.99,,2013-01-24 22:52:00,
2013-01-24 17:02:00,38.0,22.0,30.07,ENE,67,5.0,-999.0,51,-99.99,,,-99.99,,2013-01-24 23:02:00,
2013-01-24 17:12:00,38.0,22.0,30.07,ENE,67,5.0,-999.0,51,-99.99,,,-99.99,,2013-01-24 23:12:00,
2013-01-24 17:22:00,38.0,22.0,30.06,ESE,107,4.0,-999.0,52,-99.99,,,-99.99,,2013-01-24 23:22:00,
2013-01-24 17:32:00,38.0,22.0,30.06,ENE,74,3.0,-999.0,53,-99.99,,,-99.99,,2013-01-24 23:32:00,
2013-01-24 17:42:00,38.0,22.0,30.06,ENE,74,3.0,-999.0,53,-99.99,,,-99.99,,2013-01-24 23:42:00,
2013-01-24 17:52:00,38.0,23.0,30.05,SE,138,4.0,-999.0,54,-99.99,,,-99.99,,2013-01-24 23:52:00,
2013-01-24 18:02:00,39.0,24.0,30.04,ENE,78,2.0,-999.0,55,-99.99,,,-99.99,,2013-01-25 00:02:00,
2013-01-24 18:12:00,39.0,24.0,30.04,ENE,78,2.0,-999.0,55,-99.99,,,-99.99,,2013-01-25 00:12:00,
2013-01-24 18:22:00,39.0,25.0,30.05,ESE,112,3.0,-999.0,56,-99.99,,,-99.99,,2013-01-25 00:22:00,
2013-01-24 18:32:00,40.0,25.0,30.04,ESE,113,4.0,-999.0,55,-99.99,,,-99.99,,2013-01-25 00:32:00,
2013-01-24 18:42:00,40.0,25.0,30.04,ESE,113,4.0,-999.0,55,-99.99,,,-99.99,,2013-01-25 00:42:00,
2013-01-24 18:52:00,40.0,26.0,30.03,ESE,105,4.0,-999.0,56,-99.99,,,-99.99,,2013-01-25 00:52:00,
2013-01-24 19:02:00,40.0,25.0,30.05,ESE,112,4.0,-999.0,55,-99.99,,,-99.99,,2013-01-25 01:02:00,
2013-01-24 19:12:00,40.0,25.0,30.05,ESE,112,4.0,-999.0,55,-99.99,,,-99.99,,2013-01-25 01:12:00,
2013-01-24 19:22:00,40.0,25.0,30.03,SE,130,4.0,-999.0,55,-99.99,,,-99.99,,2013-01-25 01:22:00,
2013-01-24 19:32:00,40.0,25.0,30.02,ESE,111,4.0,-999.0,55,-99.99,,,-99.99,,2013-01-25 01:32:00,
2013-01-24 19:42:00,40.0,25.0,30.02,ESE,111,4.0,-999.0,55,-99.99,,,-99.99,,2013-01-25 01:42:00,
2013-01-24 19:52:00,40.0,26.0,30.02,SE,136,5.0,-999.0,56,-99.99,,,-99.99,,2013-01-25 01:52:00,
2013-01-24 20:02:00,40.0,26.0,30.01,SE,126,5.0,-999.0,56,-99.99,,,-99.99,,2013-01-25 02:02:00,
2013-01-24 20:11:00,40.0,26.0,30.01,SE,126,5.0,-999.0,56,-99.99,,,-99.99,,2013-01-25 02:11:00,
2013-01-24 20:22:00,40.0,26.0,30.01,SSE,149,4.0,-999.0,57,-99.99,,,-99.99,,2013-01-25 02:22:00,
2013-01-24 20:32:00,40.0,26.0,30.02,East,98,4.0,-999.0,58,-99.99,,,-99.99,,2013-01-25 02:32:00,
2013-01-24 20:42:00,40.0,26.0,30.02,East,98,4.0,-999.0,58,-99.99,,,-99.99,,2013-01-25 02:42:00,
2013-01-24 20:52:00,40.0,27.0,30.03,ESE,104,2.0,-999.0,60,-99.99,,,-99.99,,2013-01-25 02:52:00,
2013-01-24 21:02:00,40.0,28.0,30.04,ESE,109,2.0,-999.0,61,-99.99,,,-99.99,,2013-01-25 03:02:00,
2013-01-24 21:12:00,40.0,26.0,30.05,ESE,109,1.0,-999.0,58,-99.99,,,-99.99,,2013-01-25 03:12:00,
2013-01-24 21:22:00,40.0,26.0,30.05,ESE,109,1.0,-999.0,58,-99.99,,,-99.99,,2013-01-25 03:22:00,
2013-01-24 21:33:00,39.0,25.0,30.05,East,84,2.0,-999.0,58,-99.99,,,-99.99,,2013-01-25 03:33:00,
2013-01-24 21:42:00,39.0,25.0,30.05,East,84,2.0,-999.0,58,-99.99,,,-99.99,,2013-01-25 03:42:00,
2013-01-24 21:52:00,38.0,25.0,30.05,East,83,2.0,-999.0,59,-99.99,,,-99.99,,2013-01-25 03:52:00,
2013-01-24 22:02:00,38.0,25.0,30.05,East,94,3.0,-999.0,58,-99.99,,,-99.99,,2013-01-25 04:02:00,
2013-01-24 22:12:00,38.0,25.0,30.05,East,94,3.0,-999.0,58,-99.99,,,-99.99,,2013-01-25 04:12:00,
2013-01-24 22:22:00,37.0,23.0,30.04,East,101,3.0,-999.0,57,-99.99,,,-99.99,,2013-01-25 04:22:00,
2013-01-24 22:32:00,36.0,23.0,30.03,East,81,2.0,-999.0,59,-99.99,,,-99.99,,2013-01-25 04:32:00,
2013-01-24 22:42:00,36.0,23.0,30.03,East,81,2.0,-999.0,59,-99.99,,,-99.99,,2013-01-25 04:42:00,
2013-01-24 22:51:00,36.0,23.0,30.04,East,90,2.0,-999.0,60,-99.99,,,-99.99,,2013-01-25 04:51:00,
2013-01-24 23:03:00,36.0,23.0,30.05,East,90,1.0,-999.0,60,-99.99,,,-99.99,,2013-01-25 05:03:00,
2013-01-24 23:12:00,36.0,23.0,30.05,East,90,1.0,-999.0,60,-99.99,,,-99.99,,2013-01-25 05:12:00,
2013-01-24 23:22:00,36.0,23.0,30.05,East,90,1.0,-999.0,60,-99.99,,,-99.99,,2013-01-25 05:22:00,
2013-01-24 23:32:00,36.0,24.0,30.04,East,90,0.0,-999.0,61,-99.99,,,-99.99,,2013-01-25 05:32:00,
2013-01-24 23:43:00,36.0,24.0,30.04,East,90,0.0,-999.0,61,-99.99,,,-99.99,,2013-01-25 05:43:00,
2013-01-24 23:52:00,35.0,23.0,30.05,East,90,0.0,-999.0,61,-99.99,,,-99.99,,2013-01-25 05:52:00,